sat.trackr.live / text

‹ back to catalog

STARLINK-37256

NORAD 68569 · 2026-070AD

PAYLOAD ACTIVE UNKNOWN

§ Identity

Operator
Country
US
Launch date
2026-04-02
Launch site
AFETR
Launch vehicle
Mass (kg)
RCS (m²)

Purposes: comms

External: N2YO · Heavens-Above · Gunter

§ Orbital elements

Epoch: 2026-05-25T04:00:03.998880Z

Period
93.50 min
Inclination
53.1602°
Eccentricity
0.0000365
Mean motion
15.40043579 rev/d
Perigee alt
445.7 km
Apogee alt
446.2 km
Semi-major
6,824.1 km
B*
-6.5705e-2
RAAN
6.5665°
Arg perigee
94.1320°
Mean anomaly
315.7887°
Rev number
601

§ Raw data

STARLINK-372561 68569U 26070AD  26145.16671295 -.02370926  00000+0 -65705-1 0  99982 68569  53.1602   6.5665 0000365  94.1320 315.7887 15.40043579  6018

JSON: /api/v1/satellites/68569 · /tle

For live sub-satellite position, see the globe view (requires WebGL).

§ Visibility from observer

Set your observer location to see the next 7 days of passes ≥ 10°. The values pass through the URL so the page stays shareable.

No JS? Fill the form by hand. The geolocation button needs JavaScript.